Weather Roundup
Issued by NWS Chicago, IL

Home | Current Version | Previous Version | Text Only | Print | Product List | Glossary Off
Versions: 1 2 3 4 5 6 7 8 9 10 11 12 13 14 15 16 17 18 19 20 21 22 23 24 25 26 27 28 29 30 31 32 33 34 35 36 37 38 39 40 41 42 43 44 45 46 47 48 49 50

000
NZUS59 KLOT 240706
HRRLOT

CHICAGO AREA WEATHER ROUNDUP
NATIONAL WEATHER SERVICE CHICAGO/ROMEOVILLE IL
200 AM CDT THU JUL 24 2014

NOTE: "FAIR" INDICATES FEW OR NO CLOUDS BELOW 12,000 FEET WITH NO
SIGNIFICANT WEATHER AND/OR OBSTRUCTIONS TO VISIBILITY.

* THESE STATIONS ARE NOT UNDER NWS QUALITY CONTROL. THEY ALSO MAY NOT
  REPORT WEATHER SUCH AS PRECIPITATION OR FOG.

ILZ005-006-012>014-019>023-240800-
NORTHEAST ILLINOIS

CITY           SKY/WX    TMP DP  RH WIND       PRES   REMARKS
OHARE          CLEAR     59  50  72 N7        30.14S
MIDWAY         CLEAR     64  54  69 N7        30.13S
AURORA         CLEAR     55  49  80 N7        30.15S
LANSING*       PTCLDY    63  58  82 NE7       30.12S
JOLIET*        CLEAR     57  50  77 N6        30.14F
WAUKEGAN       CLEAR     53  50  89 NW3       30.15S
DUPAGE AIRPORT CLEAR     53  49  86 N6        30.15S
WHEELING       CLEAR     58  51  78 N6        30.16S
KANKAKEE*      CLEAR     55  52  88 NW3       30.12S
MORRIS*        CLEAR     55  50  83 CALM      30.13F
LEWIS AIRPORT* CLEAR     56  51  82 N7        30.14S
NORTHERLY IS     N/A     62  57  83 N8          N/A
$$

WIZ051-052-058>065-066-070>072-240800-
SOUTHEAST WISCONSIN

CITY           SKY/WX    TMP DP  RH WIND       PRES   REMARKS
MILWAUKEE      CLEAR     58  50  75 NW5       30.16S
KENOSHA*       CLEAR     55  51  86 N6        30.16S
RACINE*        CLEAR     57  54  89 NW6       30.17F
BURLINGTON     CLEAR     48  47  99 CALM      30.17S
WAUKESHA       CLEAR     50  46  87 CALM      30.18S
WEST BEND      CLEAR     50  46  87 CALM      30.17F
$$

INZ001>003-010>013-019-020-240800-
NORTHWEST INDIANA

CITY           SKY/WX    TMP DP  RH WIND       PRES   REMARKS
GARY*          PTCLDY    65  56  72 NE12      30.12S
MICHIGAN CITY* NOT AVBL
RENSSELAER*    NOT AVBL
VALPARAISO     CLEAR     58  54  86 VRB3      30.11S
$$

LMZ740>746-240800-
SOUTHERN LAKE MICHIGAN

STATION/POSITION TIME  SKY/WX   TEMP WIND        PRES    VSBY
                                AIR  DIR/SP/G
                 (UTC)          (F)  (DEG/KT/KT) (MB)    (MI)
HARRISON CRIB    0700            63   40/ 17/ 18   N/A
BURNHAM HARBOR   0700            62   20/  8/ 13   N/A
CALUMET HARBOR   0600            64   20/  8/ 13 1018.8F
BURNS HARBOR     NOT AVBL
MICHIGAN CITY    0700            63   30/ 15/ 17   N/A
$$

ABBREVIATIONS USED IN REMARKS
   TC - TEMPERATURE IN CELSIUS
  WCI - WIND CHILL INDEX
   HX - HEAT INDEX
  VSB - VISIBILITY
$$


USA.gov is the U.S. government's official web portal to all federal, state and local government web resources and services.